Tracking 29892 objects as of 21-Nov-2024
HD Live streaming from Space Station
objects crossing your sky now

NOAA 16 DEB

Track NOAA 16 DEB now!
10-day predictions


NORAD ID: 41150
Int'l Code: 2000-055CH
Perigee: 693.0 km
Apogee: 755.5 km
Inclination: 98.8 °
Period: 99.1 minutes
Semi major axis: 7095 km
RCS: Unknown
Launch date: September 21, 2000
Source: United States (US)
Launch site: AIR FORCE WESTERN TEST RANGE (AFWTR)

Note: This is SATELLITE DEBRIS
Your satellite tracking list
Your tracking list is empty




NASA's NSSDC Master Catalog

Two Line Element Set (TLE):
1 41150U 00055CH  24324.11184139  .00020699  00000-0  49912-2 0  9997
2 41150  98.8062  99.5758 0043982 292.6047  67.0497 14.52619664467863
Source of the keplerian elements: AFSPC